EW1979 Weather Reports


time (UTC)temp
C
wind
direction
speed
KPH
gust
KPH
rain 1hr
cm
rain 24hr
cm
rain mn
cm
humidity
%
barometer
mb
20260504223008 24 152 0.0 0.0 0.00 0.00 0.00 68 1007.0
20260504221503 24 149 0.0 0.0 0.00 0.00 0.00 69 1007.0
20260504214616 24 198 0.0 0.0 0.00 0.00 0.00 68 1007.2
20260504213007 23 207 0.0 0.0 0.00 0.00 0.00 68 1007.3
20260504211603 23 178 0.0 0.0 0.00 0.00 0.00 70 1007.8
20260504210105 23 163 0.0 0.0 0.00 0.00 0.00 70 1008.0
20260504204606 23 182 0.0 0.0 0.00 0.00 0.00 69 1008.2
20260504203010 23 186 0.0 0.0 0.00 0.00 0.00 71 1008.4
20260504200004 23 194 0.0 0.0 0.00 0.00 0.00 70 1008.9
20260504194503 23 220 0.0 0.0 0.00 0.00 0.00 70 1009.3
20260504184504 22 182 0.0 0.0 0.00 0.00 0.00 71 1009.6
20260504181512 22 207 0.0 0.0 0.00 0.00 0.00 71 1010.2
20260504180007 22 163 0.0 0.0 0.00 0.00 0.00 72 1010.2
20260504174507 22 193 0.0 0.0 0.00 0.00 0.00 70 1010.4
20260504173007 21 186 0.0 0.0 0.00 0.00 0.00 73 1010.6
20260504171509 21 184 0.0 0.0 0.00 0.00 0.00 73 1010.5
20260504160106 20 169 0.0 0.0 0.00 0.00 0.00 75 1011.2
20260504140113 16 193 0.0 0.0 0.00 0.00 0.00 62 1011.8
20260504060107 16 155 0.0 0.0 0.00 0.00 0.00 76 1013.4
20260504044502 17 150 0.0 0.0 0.00 0.00 0.00 68 1013.8
20260504043008 17 159 0.0 0.0 0.00 0.00 0.00 66 1013.9
20260504034516 18 152 0.0 0.0 0.00 0.00 0.00 58 1014.2
20260504033117 18 147 0.0 0.0 0.00 0.00 0.00 57 1014.2
20260504024516 18 163 0.0 0.0 0.00 0.00 0.00 58 1014.5
20260504023006 18 163 0.0 0.0 0.00 0.00 0.00 57 1014.3
20260504020104 18 163 0.0 0.0 0.00 0.00 0.00 55 1014.4
20260504014603 18 163 0.0 0.0 0.00 0.00 0.00 55 1014.4
20260504013003 19 163 0.0 0.0 0.00 0.00 0.00 54 1014.3
20260504011504 19 163 0.0 0.0 0.00 0.00 0.00 53 1014.0
20260504004623 20 163 0.0 0.0 0.00 0.00 0.00 50 1014.2
20260504003003 21 159 0.0 0.0 0.00 0.00 0.00 49 1014.1
20260504001608 21 162 0.0 0.0 0.00 0.00 0.00 45 1014.3
20260504000003 21 142 0.0 0.0 0.00 0.00 0.00 44 1014.6
20260503234503 21 148 0.0 0.0 0.00 0.00 0.00 43 1014.6
20260503233103 22 178 0.0 0.0 0.00 0.00 0.00 42 1014.6
20260503231603 22 202 0.0 0.0 0.00 0.00 0.00 40 1014.7
20260503230115 22 184 0.0 0.0 0.00 0.00 0.00 41 1014.6
20260503224602 22 161 0.0 0.0 0.00 0.00 0.00 40 1014.9